User: anonymous
Location: CNYAC Observatory
(43.2150°N, 74.9500°W)
Time: 22:16:48
(UTC-04:00)
Language:

Cosmos 1300 Rocket - Orbit

View from above orbital plane
View from above orbital plane
View from above satellite
View from above satellite

Ground track
Ground track

The orbit data is extracted from the following two-line orbital elements,

1 12786U 81082B   14245.42429049  .00000303  00000-0  33309-4 0  9654
2 12786 082.4897 207.6333 0017896 022.5517 094.3133 14.84156986783677
Epoch (UTC): 02 September 2014 10:10:58
Eccentricity: 0.0017896
inclination: 82.4897°
perigee height: 604 km
apogee height: 629 km
right ascension of ascending node: 207.6333°
argument of perigee: 22.5517°
revolutions per day: 14.84156986
mean anomaly at epoch: 94.3133°
orbit number at epoch: 78367

The dashed part of the orbit path shows where the satellite is in the earth's shadow,  

DLR